Fairbanks, AK

12:42 AM AKDT on October 14, 2019 (GMT -0800)
Fairbanks International

Weather History for PAFA - May, 2019

Change the Weather History Date:

Wednesday, May 8, 2019

  Actual Average Record
Temperature  
Mean Temperature 50 °F 46 °F  
Max Temperature 56 °F 58 °F 73 °F (1995)
Min Temperature 43 °F 35 °F 8 °F (1964)
Degree Days  
Heating Degree Days 15 19  
Month to date heating degree days 157 164  
Since 1 July heating degree days 11419 13188  
Cooling Degree Days 0 0  
Month to date cooling degree days 0 0  
Year to date cooling degree days 0 0  
Growing Degree Days 2 (Base 50)    
Moisture  
Dew Point 36 °F    
Average Humidity 64    
Maximum Humidity 89    
Minimum Humidity 45    
Precipitation  
Precipitation 0.14 in 0.02 in 0.37 in (1989)
Month to date precipitation 0.21 0.13  
Year to date precipitation 2.69 1.69  
Snow  
Snow 0.00 in 0.00 in 0.90 in (1992)
Month to date snowfall T 0.4  
Since 1 July snowfall 57.5 64.5  
Snow Depth 0.00 in    
Sea Level Pressure  
Sea Level Pressure 29.87 in    
Wind  
Wind Speed 3 mph (SSW)    
Max Wind Speed 14 mph    
Max Gust Speed -    
Visibility 10 miles    
Events Rain    
T = Trace of Precipitation, MM = Missing Value Source: NWS Daily Summary

Daily Weather History Graph

Daily Weather History Graph

Search for Another Location

Airport or City:

Astronomy

May. 08, 2019 Rise Set
Actual Time 4:53 AM AKDT 10:44 PM AKDT
Civil Twilight 3:25 AM AKDT 12:15 AM AKDT
Nautical Twilight Sun does not rise Sun does not rise
Astronomical Twilight Sun does not rise Sun does not rise
Moon 7:07 AM AKDT (5/8) 2:42 AM AKDT (5/8)
Length of Visible Light 20h 49m
Length of Day
17h 51m
Waxing Crescent, 17% of the Moon is Illuminated
May 8
Waxing Crescent
May 11
First Quarter
May 18
Full
May 26
Last Quarter
Jun 3
New

Hourly Weather History & Observations

Time (AKDT) Temp. Windchill Dew Point Humidity Pressure Visibility Wind Dir Wind Speed Gust Speed Precip Events Conditions
12:53 AM 54.0 °F - 33.1 °F 45% 29.76 in 10.0 mi Calm Calm - 0.00 in Rain Light Rain
1:53 AM 53.1 °F - 36.0 °F 52% 29.77 in 10.0 mi Calm Calm - 0.00 in   Overcast
2:53 AM 50.0 °F - 36.0 °F 59% 29.78 in 10.0 mi ENE 5.8 mph - N/A   Overcast
3:53 AM 50.0 °F - 35.1 °F 57% 29.78 in 10.0 mi Variable 3.5 mph - N/A   Overcast
4:53 AM 51.1 °F - 32.0 °F 48% 29.79 in 10.0 mi SSE 5.8 mph - N/A   Overcast
5:53 AM 50.0 °F - 30.9 °F 48% 29.80 in 10.0 mi South 8.1 mph - N/A   Overcast
6:53 AM 50.0 °F - 32.0 °F 50% 29.80 in 10.0 mi SSW 8.1 mph - N/A   Overcast
7:53 AM 46.0 °F 41.9 °F 32.0 °F 58% 29.81 in 10.0 mi South 8.1 mph - N/A   Overcast
8:53 AM 45.0 °F 43.5 °F 30.9 °F 58% 29.83 in 10.0 mi South 3.5 mph - N/A   Overcast
9:53 AM 45.0 °F 40.6 °F 30.9 °F 58% 29.83 in 10.0 mi South 8.1 mph - N/A   Overcast
10:53 AM 46.0 °F 44.8 °F 30.9 °F 56% 29.84 in 10.0 mi South 3.5 mph - 0.00 in   Overcast
11:53 AM 46.9 °F - 30.9 °F 54% 29.86 in 10.0 mi East 4.6 mph - N/A   Overcast
12:53 PM 48.0 °F - 33.1 °F 56% 29.85 in 10.0 mi Calm Calm - 0.00 in   Overcast
1:53 PM 48.0 °F - 34.0 °F 58% 29.87 in 10.0 mi Calm Calm - 0.00 in Rain Light Rain
2:53 PM 46.9 °F - 37.0 °F 68% 29.88 in 10.0 mi SSE 3.5 mph - 0.01 in Rain Light Rain
3:53 PM 48.0 °F - 39.0 °F 71% 29.88 in 10.0 mi Calm Calm - 0.02 in Rain Light Rain
4:53 PM 50.0 °F - 39.9 °F 68% 29.88 in 10.0 mi Calm Calm - 0.00 in Rain Light Rain
5:53 PM 50.0 °F - 39.9 °F 68% 29.90 in 10.0 mi East 3.5 mph - 0.00 in Rain Light Rain
6:53 PM 50.0 °F - 37.9 °F 63% 29.91 in 10.0 mi Calm Calm - 0.00 in   Mostly Cloudy
7:53 PM 48.0 °F - 43.0 °F 83% 29.93 in 10.0 mi West 5.8 mph - 0.03 in Rain Light Rain
8:13 PM 46.0 °F 39.9 °F 39.9 °F 79% 29.93 in 10.0 mi WSW 13.8 mph - 0.02 in Rain Light Rain
8:53 PM 45.0 °F 40.6 °F 39.9 °F 82% 29.97 in 10.0 mi West 8.1 mph - 0.08 in Rain Light Rain
9:04 PM 45.0 °F 41.8 °F 39.0 °F 80% 29.95 in 10.0 mi West 5.8 mph - 0.00 in Rain Light Rain
9:53 PM 44.1 °F 42.5 °F 39.9 °F 85% 30.00 in 10.0 mi SW 3.5 mph - 0.00 in   Mostly Cloudy
10:53 PM 43.0 °F 41.3 °F 39.9 °F 89% 30.04 in 10.0 mi SW 3.5 mph - N/A   Mostly Cloudy
11:53 PM 43.0 °F - 39.0 °F 86% 30.07 in 10.0 mi Calm Calm - N/A   Mostly Cloudy